EW4757 Weather Reports


time (UTC)temp
C
wind
direction
speed
KPH
gust
KPH
rain 1hr
cm
rain 24hr
cm
rain mn
cm
humidity
%
barometer
mb
20260506151027 16 305 1.6 8.0 0.08 0.56 0.56 1 1008.0
20260506150524 15 286 3.2 9.7 0.08 0.56 0.56 1 1008.2
20260506150022 15 281 3.2 9.7 0.08 0.56 0.56 1 1008.2
20260506145520 15 305 4.8 9.7 0.08 0.56 0.56 1 1008.2
20260506145020 15 302 1.6 6.4 0.10 0.56 0.56 1 1007.9
20260506144518 15 316 0.0 6.4 0.10 0.56 0.56 1 1008.1
20260506144018 15 309 3.2 6.4 0.13 0.56 0.56 1 1008.4
20260506143515 15 310 3.2 6.4 0.10 0.53 0.53 1 1008.5
20260506143022 15 318 1.6 4.8 0.13 0.53 0.53 1 1008.6
20260506142514 15 305 1.6 8.0 0.15 0.53 0.53 1 1008.5
20260506142010 15 293 1.6 9.7 0.18 0.53 0.53 1 1008.7
20260506141509 15 288 3.2 9.7 0.15 0.51 0.51 1 1008.7
20260506141008 15 297 3.2 9.7 0.18 0.48 0.48 1 1008.5
20260506140506 15 286 3.2 9.7 0.23 0.48 0.48 1 1008.5
20260506140013 15 303 4.8 9.7 0.25 0.48 0.48 1 1008.4
20260506135502 15 298 1.6 9.7 0.28 0.48 0.48 1 1008.3
20260506135000 15 293 4.8 9.7 0.25 0.46 0.46 1 1008.3
20260506134559 15 296 3.2 9.7 0.25 0.46 0.46 1 1008.4
20260506134057 15 305 1.6 8.0 0.23 0.43 0.43 1 1008.4
20260506133556 15 314 1.6 9.7 0.25 0.43 0.43 1 1008.4
20260506133114 15 293 1.6 9.7 0.23 0.41 0.41 1 1008.5
20260506132553 16 294 0.0 6.4 0.20 0.38 0.38 1 1008.6
20260506132053 16 302 1.6 6.4 0.20 0.36 0.36 1 1008.7
20260506131552 16 296 0.0 6.4 0.20 0.36 0.36 4 1008.6
20260506131050 16 298 0.0 6.4 0.15 0.30 0.30 8 1008.6
20260506130548 16 290 1.6 6.4 0.15 0.28 0.28 13 1009.1
20260506130047 16 290 3.2 6.4 0.13 0.23 0.23 15 1009.1
20260506125546 16 304 1.6 4.8 0.13 0.20 0.20 16 1009.1
20260506125048 16 306 1.6 4.8 0.15 0.20 0.20 14 1008.9
20260506124546 16 293 0.0 4.8 0.15 0.20 0.20 16 1008.7
20260506124045 16 295 1.6 4.8 0.18 0.20 0.20 19 1008.6
20260506123545 16 287 1.6 4.8 0.15 0.18 0.18 19 1008.3
20260506123045 16 312 0.0 3.2 0.18 0.18 0.18 19 1008.2
20260506122544 16 297 0.0 3.2 0.18 0.18 0.18 21 1008.2
20260506122043 16 295 0.0 4.8 0.15 0.15 0.15 23 1008.4
20260506121541 16 314 0.0 4.8 0.15 0.15 0.15 29 1008.4
20260506121040 16 307 0.0 8.0 0.13 0.13 0.13 36 1008.5
20260506120539 16 296 0.0 8.0 0.13 0.13 0.13 44 1008.6
20260506120037 16 323 1.6 6.4 0.10 0.10 0.10 49 1008.7
20260506115536 16 146 1.6 6.4 0.08 0.08 0.08 55 1008.9
20260506115034 17 306 0.0 6.4 0.05 0.05 0.05 58 1008.9
20260506114539 17 308 1.6 6.4 0.05 0.05 0.05 63 1008.9
20260506114032 17 307 1.6 6.4 0.03 0.03 0.03 66 1008.8
20260506113531 17 307 3.2 8.0 0.00 0.00 0.00 69 1008.7
20260506113029 17 283 1.6 8.0 0.00 0.00 0.00 71 1008.7
20260506112529 17 306 1.6 6.4 0.00 0.00 0.00 71 1008.8
20260506112027 18 307 1.6 6.4 0.00 0.00 0.00 72 1008.7
20260506111527 18 303 1.6 6.4 0.00 0.00 0.00 71 1008.5
20260506111026 18 324 4.8 9.7 0.00 0.00 0.00 71 1008.4
20260506110526 18 283 1.6 9.7 0.00 0.00 0.00 71 1008.3
20260506110026 18 309 1.6 11.3 0.00 0.00 0.00 71 1008.3
20260506105526 18 307 3.2 12.9 0.00 0.00 0.00 71 1008.1
20260506105026 18 317 3.2 12.9 0.00 0.00 0.00 71 1008.1
20260506104551 18 318 1.6 9.7 0.00 0.00 0.00 71 1008.0
20260506104026 18 301 4.8 9.7 0.00 0.00 0.00 71 1008.0
20260506103523 18 277 3.2 9.7 0.00 0.00 0.00 70 1008.0
20260506103023 18 307 4.8 12.9 0.00 0.00 0.00 69 1007.8
20260506102523 18 309 6.4 12.9 0.00 0.00 0.00 69 1007.7
20260506102022 18 300 3.2 11.3 0.00 0.00 0.00 70 1007.7
20260506101520 18 293 4.8 14.5 0.00 0.00 0.00 69 1007.6
20260506101020 18 242 4.8 14.5 0.00 0.00 0.00 68 1007.7
20260506100524 18 297 1.6 11.3 0.00 0.00 0.00 68 1007.6
20260506100020 18 305 3.2 11.3 0.00 0.00 0.00 68 1007.6
20260506095519 18 335 1.6 9.7 0.00 0.00 0.00 68 1007.7
20260506095018 18 305 3.2 9.7 0.00 0.00 0.00 67 1007.7
20260506094517 19 292 3.2 8.0 0.00 0.00 0.00 67 1007.8
20260506094019 19 288 3.2 9.7 0.00 0.00 0.00 66 1007.7
20260506093515 19 329 3.2 9.7 0.00 0.00 0.00 66 1007.8
20260506093015 19 308 3.2 11.3 0.00 0.00 0.00 66 1007.8
20260506092515 19 293 4.8 11.3 0.00 0.00 0.00 66 1007.8
20260506092014 19 302 4.8 11.3 0.00 0.00 0.00 66 1007.9
20260506091514 19 305 3.2 12.9 0.00 0.00 0.00 65 1008.0
20260506091015 19 296 3.2 12.9 0.00 0.00 0.00 65 1008.0
20260506090516 19 300 3.2 11.3 0.00 0.00 0.00 65 1008.0
20260506090011 19 326 3.2 11.3 0.00 0.00 0.00 65 1007.9
20260506085514 19 297 3.2 12.9 0.00 0.00 0.00 64 1007.8
20260506085011 19 297 3.2 12.9 0.00 0.00 0.00 64 1007.8
20260506084510 19 297 3.2 11.3 0.00 0.00 0.00 64 1007.9
20260506084014 20 318 3.2 11.3 0.00 0.00 0.00 64 1007.9
20260506083509 20 308 4.8 9.7 0.00 0.00 0.00 63 1008.0
20260506083016 20 307 4.8 12.9 0.00 0.00 0.00 63 1008.0
20260506082506 20 286 6.4 14.5 0.00 0.00 0.00 63 1008.0
20260506082005 20 299 4.8 16.1 0.00 0.00 0.00 62 1008.0
20260506081509 20 323 6.4 16.1 0.00 0.00 0.00 62 1008.0
20260506081004 20 276 4.8 12.9 0.00 0.00 0.00 62 1008.0
20260506080505 20 324 4.8 17.7 0.00 0.00 0.00 62 1007.9
20260506073505 20 318 4.8 12.9 0.00 0.00 0.00 60 1007.8
20260506073004 20 302 4.8 12.9 0.00 0.00 0.00 60 1007.8
20260506072501 20 303 4.8 9.7 0.00 0.00 0.00 60 1007.9
20260506072102 20 319 4.8 9.7 0.00 0.00 0.00 60 1008.0
20260506071624 20 305 4.8 11.3 0.00 0.00 0.00 59 1008.0
20260506071057 20 306 4.8 11.3 0.00 0.00 0.00 59 1008.0
20260506070558 20 320 4.8 11.3 0.00 0.00 0.00 59 1008.1
20260506062049 21 300 3.2 9.7 0.00 0.00 0.00 56 1008.6
20260506061548 21 308 1.6 9.7 0.00 0.00 0.00 55 1008.7
20260506061047 21 293 3.2 9.7 0.00 0.00 0.00 55 1008.7
20260506060548 21 309 1.6 9.7 0.00 0.00 0.00 55 1008.6
20260506051042 21 319 1.6 8.0 0.00 0.00 0.00 53 1008.9
20260506050540 21 112 1.6 8.0 0.00 0.00 0.00 52 1009.0
20260506045039 22 300 3.2 8.0 0.00 0.00 0.00 51 1009.2
20260506044539 22 320 3.2 8.0 0.00 0.00 0.00 51 1009.1
20260506044040 22 347 3.2 8.0 0.00 0.00 0.00 50 1009.1
20260506043537 22 302 3.2 8.0 0.00 0.00 0.00 50 1009.2
20260506043047 22 292 3.2 8.0 0.00 0.00 0.00 50 1009.1
20260506042536 22 304 3.2 9.7 0.00 0.00 0.00 49 1009.1
20260506042037 22 312 4.8 9.7 0.00 0.00 0.00 49 1009.1
20260506041538 22 327 3.2 9.7 0.00 0.00 0.00 49 1009.2
20260506041034 22 300 3.2 11.3 0.00 0.00 0.00 49 1009.2
20260506040533 22 309 4.8 11.3 0.00 0.00 0.00 48 1009.0
20260506040044 22 297 3.2 8.0 0.00 0.00 0.00 48 1009.1
20260506035533 22 312 1.6 12.9 0.00 0.00 0.00 48 1009.0
20260506035032 22 306 3.2 12.9 0.00 0.00 0.00 48 1008.9
20260506034532 22 295 6.4 11.3 0.00 0.00 0.00 47 1008.9
20260506034032 22 298 4.8 9.7 0.00 0.00 0.00 47 1008.9
20260506033531 22 321 3.2 8.0 0.00 0.00 0.00 47 1008.8
20260506033031 22 300 3.2 9.7 0.00 0.00 0.00 47 1008.8
20260506032531 22 297 3.2 9.7 0.00 0.00 0.00 47 1008.9
20260506032031 22 307 1.6 6.4 0.00 0.00 0.00 46 1008.8
20260506031531 22 319 1.6 9.7 0.00 0.00 0.00 46 1009.0
20260506031031 22 302 1.6 6.4 0.00 0.00 0.00 46 1009.0
20260506030532 22 290 1.6 6.4 0.00 0.00 0.00 45 1009.0
20260506030030 22 296 1.6 6.4 0.00 0.00 0.00 44 1008.9
20260506025530 22 316 1.6 6.4 0.00 0.00 0.00 44 1008.9
20260506025033 22 287 3.2 6.4 0.00 0.00 0.00 43 1008.9
20260506024540 22 304 1.6 11.3 0.00 0.00 0.00 42 1009.0
20260506024031 22 310 1.6 11.3 0.00 0.00 0.00 42 1008.9
20260506023530 22 295 3.2 12.9 0.00 0.00 0.00 41 1008.9
20260506023028 23 333 0.0 12.9 0.00 0.00 0.00 41 1008.8
20260506022529 23 301 0.0 12.9 0.00 0.00 0.00 40 1008.9
20260506022030 23 283 1.6 12.9 0.00 0.00 0.00 40 1008.9
20260506021543 23 299 1.6 9.7 0.00 0.00 0.00 40 1008.9
20260506021028 23 290 4.8 14.5 0.00 0.00 0.00 40 1008.9
20260506020531 23 303 3.2 11.3 0.00 0.00 0.00 40 1009.0
20260506020029 23 307 1.6 6.4 0.00 0.00 0.00 39 1009.0
20260506015529 23 314 0.0 6.4 0.00 0.00 0.00 39 1008.9
20260506015029 23 321 0.0 4.8 0.00 0.00 0.00 39 1008.8
20260506014528 23 331 1.6 4.8 0.00 0.00 0.00 38 1008.8
20260506014027 23 306 1.6 6.4 0.00 0.00 0.00 38 1008.8
20260506013527 23 305 1.6 6.4 0.00 0.00 0.00 37 1008.7
20260506013027 23 312 1.6 6.4 0.00 0.00 0.00 37 1008.7
20260506012527 23 313 0.0 8.0 0.00 0.00 0.00 36 1008.6
20260506012028 24 312 1.6 8.0 0.00 0.00 0.00 36 1008.5
20260506011529 24 300 3.2 8.0 0.00 0.00 0.00 35 1008.5
20260506011030 24 302 1.6 8.0 0.00 0.00 0.00 35 1008.4
20260506010527 24 335 3.2 8.0 0.00 0.00 0.00 35 1008.4
20260506010031 24 323 1.6 8.0 0.00 0.00 0.00 34 1008.4
20260506005525 24 293 1.6 9.7 0.00 0.00 0.00 34 1008.3
20260506005029 25 153 3.2 12.9 0.00 0.00 0.00 33 1008.2
20260506004524 25 332 3.2 12.9 0.00 0.00 0.00 33 1008.1
20260506004025 25 319 3.2 12.9 0.00 0.00 0.00 32 1008.1
20260506003525 25 302 4.8 12.9 0.00 0.00 0.00 32 1008.0
20260506003025 25 316 4.8 9.7 0.00 0.00 0.00 32 1008.0
20260506002528 25 305 3.2 9.7 0.00 0.00 0.00 31 1007.9
20260506002024 25 302 4.8 9.7 0.00 0.00 0.00 31 1007.9
20260506001524 25 303 3.2 11.3 0.00 0.00 0.00 30 1007.9
20260506001024 25 329 3.2 11.3 0.00 0.00 0.00 30 1007.8
20260506000524 25 299 4.8 9.7 0.00 0.00 0.00 29 1007.8
20260506000023 25 297 4.8 9.7 0.00 0.00 0.00 29 1007.8
20260505235523 25 300 4.8 12.9 0.00 0.00 0.00 28 1007.8
20260505235023 26 293 6.4 12.9 0.00 0.00 0.00 27 1007.7
20260505234523 26 308 4.8 16.1 0.00 0.00 0.00 27 1007.7
20260505234022 26 312 9.7 16.1 0.00 0.00 0.00 26 1007.6
20260505233523 26 296 8.0 16.1 0.00 0.00 0.00 26 1007.7
20260505233022 26 321 8.0 16.1 0.00 0.00 0.00 26 1007.7
20260505232522 26 314 4.8 11.3 0.00 0.00 0.00 28 1007.7
20260505232023 26 305 4.8 11.3 0.00 0.00 0.00 28 1007.6
20260505231527 26 302 4.8 12.9 0.00 0.00 0.00 28 1007.6
20260505231021 26 289 4.8 12.9 0.00 0.00 0.00 28 1007.6
20260505230521 26 291 4.8 11.3 0.00 0.00 0.00 28 1007.6
20260505230023 26 305 4.8 12.9 0.00 0.00 0.00 27 1007.7
20260505225522 26 303 8.0 12.9 0.00 0.00 0.00 27 1007.7
20260505225022 27 304 6.4 12.9 0.00 0.00 0.00 26 1007.7
20260505224527 27 316 4.8 12.9 0.00 0.00 0.00 27 1007.7
20260505224021 27 326 8.0 14.5 0.00 0.00 0.00 26 1007.6
20260505223520 27 305 8.0 14.5 0.00 0.00 0.00 26 1007.6
20260505223020 27 302 8.0 12.9 0.00 0.00 0.00 26 1007.7
20260505222519 27 307 6.4 14.5 0.00 0.00 0.00 27 1007.9
20260505222019 27 315 9.7 14.5 0.00 0.00 0.00 27 1007.8
20260505221519 27 305 3.2 12.9 0.00 0.00 0.00 28 1007.7
20260505221018 27 318 4.8 16.1 0.00 0.00 0.00 28 1007.8
20260505220518 27 307 8.0 16.1 0.00 0.00 0.00 27 1007.7
20260505220019 27 307 4.8 16.1 0.00 0.00 0.00 27 1007.6
20260505215518 27 294 8.0 16.1 0.00 0.00 0.00 27 1007.5
20260505215018 27 333 6.4 14.5 0.00 0.00 0.00 27 1007.5
20260505214518 27 314 4.8 14.5 0.00 0.00 0.00 27 1007.6
20260505214018 27 320 4.8 11.3 0.00 0.00 0.00 27 1007.4
20260505213517 27 295 6.4 17.7 0.00 0.00 0.00 27 1007.5
20260505213019 27 306 6.4 17.7 0.00 0.00 0.00 27 1007.4
20260505212520 27 299 6.4 16.1 0.00 0.00 0.00 27 1007.5
20260505212016 27 305 4.8 17.7 0.00 0.00 0.00 27 1007.5
20260505211533 27 313 9.7 17.7 0.00 0.00 0.00 26 1007.5
20260505211016 27 305 9.7 17.7 0.00 0.00 0.00 27 1007.5
20260505210516 28 316 6.4 14.5 0.00 0.00 0.00 27 1007.5
20260505210016 27 309 6.4 14.5 0.00 0.00 0.00 26 1007.6
20260505205517 27 295 8.0 16.1 0.00 0.00 0.00 26 1007.5
20260505205015 27 313 8.0 16.1 0.00 0.00 0.00 26 1007.5
20260505204514 28 305 6.4 16.1 0.00 0.00 0.00 27 1007.5
20260505204014 28 345 4.8 14.5 0.00 0.00 0.00 26 1007.5
20260505203514 28 296 8.0 12.9 0.00 0.00 0.00 26 1007.4
20260505203014 28 289 6.4 17.7 0.00 0.00 0.00 25 1007.5
20260505202514 28 329 9.7 17.7 0.00 0.00 0.00 25 1007.5
20260505202013 28 299 6.4 14.5 0.00 0.00 0.00 24 1007.4
20260505201512 28 314 6.4 19.3 0.00 0.00 0.00 25 1007.5
20260505201015 28 322 8.0 17.7 0.00 0.00 0.00 24 1007.5
20260505200512 28 302 8.0 16.1 0.00 0.00 0.00 24 1007.5
20260505200011 28 316 6.4 19.3 0.00 0.00 0.00 24 1007.6
20260505195510 28 302 12.9 19.3 0.00 0.00 0.00 24 1007.6
20260505195009 28 300 9.7 20.9 0.00 0.00 0.00 25 1007.6
20260505194509 28 297 11.3 20.9 0.00 0.00 0.00 25 1007.7
20260505194010 28 312 8.0 16.1 0.00 0.00 0.00 25 1007.8
20260505193508 28 273 8.0 19.3 0.00 0.00 0.00 25 1007.8
20260505193007 28 326 8.0 14.5 0.00 0.00 0.00 26 1007.9
20260505192506 28 298 6.4 12.9 0.00 0.00 0.00 26 1007.9
20260505192005 29 317 6.4 11.3 0.00 0.00 0.00 26 1007.9
20260505191504 28 311 4.8 16.1 0.00 0.00 0.00 27 1008.0
20260505191002 28 297 4.8 16.1 0.00 0.00 0.00 28 1008.2
20260505190502 28 305 6.4 12.9 0.00 0.00 0.00 28 1008.2
20260505190103 28 314 4.8 14.5 0.00 0.00 0.00 28 1008.4
20260505185600 28 286 6.4 14.5 0.00 0.00 0.00 28 1008.4
20260505185059 28 315 4.8 16.1 0.00 0.00 0.00 29 1008.4
20260505184559 28 295 8.0 16.1 0.00 0.00 0.00 28 1008.5
20260505184057 28 300 3.2 14.5 0.00 0.00 0.00 30 1008.6
20260505183556 28 318 6.4 17.7 0.00 0.00 0.00 30 1008.6
20260505183055 28 288 4.8 17.7 0.00 0.00 0.00 29 1008.7
20260505182557 28 308 4.8 16.1 0.00 0.00 0.00 31 1008.6
20260505182056 28 302 4.8 16.1 0.00 0.00 0.00 31 1008.7
20260505181553 28 290 8.0 14.5 0.00 0.00 0.00 30 1008.8
20260505181052 28 292 4.8 9.7 0.00 0.00 0.00 31 1009.0
20260505180551 28 319 4.8 11.3 0.00 0.00 0.00 30 1009.1
20260505180055 28 290 1.6 11.3 0.00 0.00 0.00 33 1009.1
20260505175549 28 285 3.2 12.9 0.00 0.00 0.00 31 1009.2
20260505175050 27 293 6.4 12.9 0.00 0.00 0.00 31 1009.2
20260505174548 28 298 6.4 12.9 0.00 0.00 0.00 31 1009.4
20260505174047 28 321 6.4 12.9 0.00 0.00 0.00 30 1009.4
20260505173547 28 305 3.2 9.7 0.00 0.00 0.00 31 1009.4
20260505173046 28 235 1.6 12.9 0.00 0.00 0.00 32 1009.3
20260505172549 27 60 1.6 12.9 0.00 0.00 0.00 33 1009.4
20260505172045 27 305 6.4 11.3 0.00 0.00 0.00 31 1009.5
20260505171545 27 305 3.2 8.0 0.00 0.00 0.00 32 1009.6
20260505171045 27 300 3.2 12.9 0.00 0.00 0.00 31 1009.6
20260505170544 27 301 4.8 12.9 0.00 0.00 0.00 31 1009.7
20260505170044 27 312 1.6 9.7 0.00 0.00 0.00 32 1009.8
20260505165545 27 327 0.0 9.7 0.00 0.00 0.00 33 1009.9
20260505165042 27 311 3.2 9.7 0.00 0.00 0.00 32 1009.9
20260505164641 27 156 1.6 9.7 0.00 0.00 0.00 33 1010.0
20260505164043 27 290 4.8 17.7 0.00 0.00 0.00 32 1010.1
20260505163540 27 217 1.6 12.9 0.00 0.00 0.00 34 1010.1
20260505163040 26 312 1.6 12.9 0.00 0.00 0.00 33 1010.2
20260505162543 26 302 3.2 8.0 0.00 0.00 0.00 33 1010.4
20260505162038 26 303 3.2 12.9 0.00 0.00 0.00 33 1010.4
20260505161540 26 307 1.6 12.9 0.00 0.00 0.00 34 1010.5
20260505161038 26 300 3.2 12.9 0.00 0.00 0.00 34 1010.6
20260505160539 26 286 3.2 11.3 0.00 0.00 0.00 34 1010.6
20260505153038 26 300 1.6 6.4 0.00 0.00 0.00 39 1010.9
20260505152533 25 315 0.0 6.4 0.00 0.00 0.00 38 1010.8
20260505152033 25 294 1.6 8.0 0.00 0.00 0.00 40 1010.8
20260505151539 25 291 3.2 8.0 0.00 0.00 0.00 38 1010.8